Lid_Strength_Index
1 1 1 1 1 0 0 -0 -0 -1 -1 -1 -0 -0 0 0 0 0 0 -0 1 1 0 1 1 0 1 1 0 1 1 2 4 2 1 0 0 1 2 -1 -0 2 2
1 1 1 1 1 1 1 0 -0 0 -0 -0 -0 0 0 0 0 0 1 0 1 1 1 1 1 0 1 0 1 1 1 1 2 3 2 1 1 0 0 0 1 2 2
1 1 1 1 0 0 0 0 -0 0 0 0 0 0 0 0 0 0 0 1 1 1 1 1 1 1 1 1 1 1 1 1 1 2 2 1 1 0 1 0 0 -0 0
1 1 1 1 1 0 0 0 -0 -0 -0 0 0 0 0 0 0 0 0 1 1 0 1 2 1 1 1 1 1 1 1 1 1 2 2 2 2 1 1 1 2 0 3
1 1 1 0 0 0 0 -1 -0 -0 -0 0 0 0 0 0 1 1 1 1 4 4 3 4 2 2 1 0 1 1 1 2 2 2 3 2 2 2 2 1 2 2 1
1 1 1 -0 0 0 0 0 0 0 0 0 1 1 1 1 2 3 1 4 4 3 3 2 2 0 1 0 1 1 -0 2 2 2 3 3 3 2 1 2 2 3 4
1 1 1 1 1 1 0 0 1 1 0 1 1 1 1 0 3 4 3 4 4 3 3 3 3 1 0 0 1 1 2 2 2 1 2 2 2 1 1 2 2 2 2
1 1 1 1 1 1 1 0 -0 0 1 1 1 1 1 1 4 6 4 4 4 3 3 4 4 2 0 1 1 1 2 2 2 1 1 1 0 0 0 1 1 1 1
2 1 1 1 1 1 0 -0 -1 0 0 1 1 1 1 1 5 7 5 4 4 3 4 4 4 2 1 1 1 1 2 3 2 1 1 1 1 1 -0 0 2 2 3
2 1 0 -0 -0 -0 -1 -1 -1 -0 1 1 1 0 2 1 7 7 4 2 3 2 2 3 5 3 4 3 1 1 3 3 2 2 2 1 1 1 1 0 1 3 3
1 0 -0 -1 -1 -1 -1 -1 -0 0 1 1 1 1 1 1 1 8 7 1 2 2 2 1 2 6 6 7 5 2 2 2 2 1 1 1 0 1 1 1 -0 2 3
1 1 -0 -1 -0 0 -1 -0 0 1 1 2 2 2 1 1 3 8 8 7 3 2 2 1 2 7 8 8 7 5 4 3 2 2 3 2 2 2 2 2 2 -1 -0
1 1 -0 -1 -1 -0 0 1 2 1 2 2 2 2 2 1 1 8 8 7 7 3 1 4 7 8 9 8 7 6 5 3 2 2 3 4 3 2 2 3 2 0 -0
1 1 -0 1 1 1 1 1 1 1 2 2 2 2 2 2 1 0 0 2 6 5 4 3 4 5 7 5 6 6 5 4 4 4 3 3 3 3 4 4 5 2 2
1 1 1 1 1 1 1 1 1 0 1 1 1 1 2 2 2 5 4 0 1 2 3 2 2 4 5 5 5 5 5 5 5 4 4 4 3 3 3 4 4 3 4
1 1 1 1 1 1 1 1 4 5 6 5 6 5 1 4 7 11 12 11 10 10 2 2 3 3 4 4 4 5 5 5 5 4 4 4 4 3 5 4 3 4 3
1 1 1 2 1 1 1 2 2 2 5 7 8 9 9 9 10 11 11 11 11 9 2 2 3 2 2 3 4 4 4 4 4 5 4 5 4 3 4 4 4 4 4
0 4 1 1 1 1 1 1 1 2 2 2 3 6 7 9 10 11 10 8 2 6 3 2 2 2 2 2 2 3 3 3 4 4 4 5 5 4 4 4 5 4 4
1 1 1 1 1 1 1 1 1 1 2 2 1 2 4 6 7 8 10 2 2 2 2 2 2 2 2 2 2 2 2 3 3 4 4 4 5 5 4 5 4 7 5
1 2 1 0 1 1 1 1 2 2 2 2 2 2 1 2 2 2 1 1 1 2 2 2 1 1 1 1 1 1 2 2 2 4 4 4 5 5 5 4 5 4 4
1 1 1 1 1 2 1 1 2 2 2 2 2 2 7 1 2 2 2 2 2 2 1 1 1 1 1 1 1 1 2 2 1 2 3 4 4 5 5 4 4 4 3
1 1 1 1 1 1 1 1 1 2 2 2 1 1 6 1 2 2 2 2 3 3 3 2 1 1 1 1 1 1 1 2 1 2 3 3 3 4 3 3 4 4 4
1 1 1 1 1 2 1 1 1 1 2 1 1 2 2 3 3 4 4 4 4 5 5 5 4 3 1 0 0 0 1 1 1 1 2 2 3 3 3 4 4 4 3
1 1 1 1 1 2 1 1 1 3 2 2 3 3 3 3 4 4 5 5 6 6 7 6 6 5 4 1 -0 -0 -0 0 -0 0 1 1 3 5 3 4 4 4 4
1 1 1 1 1 1 1 2 2 3 3 3 3 3 4 4 5 5 5 6 6 6 7 6 5 5 3 2 1 0 3 11 5 5 0 1 2 3 3 3 3 4 3
1 1 1 1 1 1 2 2 3 3 4 4 3 3 4 5 5 5 5 6 6 6 5 5 4 5 4 4 1 6 11 14 8 13 2 1 2 2 3 3 3 3 3